CTV672 WARR-WADL

Flight info

Callsign CTV672
Flight time 0h 38m
Altitude 27000
Route ENTAS W34 AGUNG
Aircraft A320/M-SDE3FGHIRWY/LB1

Departure

Time 2026-04-23 13:57
Airport Juanda International Airport (WARR)

Arrival

Time 2026-04-23 14:36
Airport Lombok International Airport (WADL)
Time Latitude Longitude Altitude Speed Heading
2026-04-23 13:46 -7.37608 112.79593 8 ft 0 kts 10°
2026-04-23 13:48 -7.37621 112.79591 8 ft 2 kts
2026-04-23 13:48 -7.37636 112.79589 8 ft 1 kts
2026-04-23 13:49 -7.37648 112.79588 8 ft 2 kts 10°
2026-04-23 13:49 -7.37662 112.79584 8 ft 2 kts
2026-04-23 13:49 -7.37677 112.79582 8 ft 2 kts
2026-04-23 13:49 -7.37692 112.79582 8 ft 2 kts 331°
2026-04-23 13:50 -7.37702 112.79593 8 ft 2 kts 289°
2026-04-23 13:50 -7.37704 112.79607 8 ft 0 kts 277°
2026-04-23 13:50 -7.37704 112.79612 8 ft 0 kts 279°
2026-04-23 13:52 -7.37704 112.79609 8 ft 1 kts 279°
2026-04-23 13:52 -7.37702 112.79594 8 ft 3 kts 279°
2026-04-23 13:52 -7.37696 112.79564 8 ft 5 kts 280°
2026-04-23 13:53 -7.37688 112.79518 8 ft 7 kts 279°
2026-04-23 13:53 -7.37695 112.79459 8 ft 9 kts 233°
2026-04-23 13:53 -7.37742 112.79414 8 ft 10 kts 258°
2026-04-23 13:53 -7.37730 112.79318 8 ft 18 kts 278°
2026-04-23 13:54 -7.37706 112.79172 8 ft 22 kts 278°
2026-04-23 13:54 -7.37790 112.79078 8 ft 20 kts 186°
2026-04-23 13:54 -7.37857 112.78985 9 ft 19 kts 282°
2026-04-23 13:54 -7.37835 112.78848 11 ft 19 kts 279°
2026-04-23 13:55 -7.37813 112.78715 11 ft 19 kts 279°
2026-04-23 13:55 -7.37789 112.78565 11 ft 29 kts 279°
2026-04-23 13:55 -7.37751 112.78326 11 ft 34 kts 279°
2026-04-23 13:55 -7.37715 112.78110 11 ft 25 kts 280°
2026-04-23 13:56 -7.37740 112.78024 11 ft 10 kts 179°
2026-04-23 13:56 -7.37800 112.78070 11 ft 12 kts 129°
2026-04-23 13:56 -7.37867 112.78140 11 ft 15 kts 148°
2026-04-23 13:56 -7.37928 112.78332 12 ft 61 kts 99°
2026-04-23 13:57 -7.38035 112.78999 9 ft 129 kts 99°
2026-04-23 13:57 -7.38200 112.80021 217 ft 158 kts 98°
2026-04-23 13:57 -7.38375 112.81108 781 ft 163 kts 98°
2026-04-23 13:57 -7.38567 112.82288 1256 ft 178 kts 98°
2026-04-23 13:58 -7.38775 112.83570 1737 ft 194 kts 98°
2026-04-23 13:58 -7.38996 112.84948 2210 ft 208 kts 97°
2026-04-23 13:58 -7.39235 112.86438 2561 ft 229 kts 97°
2026-04-23 13:58 -7.39500 112.88090 3038 ft 247 kts 97°
2026-04-23 13:59 -7.39783 112.89854 3607 ft 261 kts 98°
2026-04-23 13:59 -7.40076 112.91670 4436 ft 265 kts 98°
2026-04-23 13:59 -7.40430 112.93457 5257 ft 267 kts 101°
2026-04-23 13:59 -7.40822 112.95284 6034 ft 272 kts 101°
2026-04-23 14:00 -7.41094 112.96537 6545 ft 275 kts 101°
2026-04-23 14:00 -7.41639 112.99038 7547 ft 280 kts 101°
2026-04-23 14:00 -7.42059 113.00969 8305 ft 284 kts 101°
2026-04-23 14:00 -7.42477 113.02897 9038 ft 287 kts 101°
2026-04-23 14:01 -7.42909 113.04889 9762 ft 291 kts 101°
2026-04-23 14:01 -7.43336 113.06863 10396 ft 298 kts 101°
2026-04-23 14:01 -7.43791 113.08966 10744 ft 315 kts 101°
2026-04-23 14:01 -7.44266 113.11166 11042 ft 332 kts 101°
2026-04-23 14:02 -7.44776 113.13526 11321 ft 349 kts 101°
2026-04-23 14:02 -7.45298 113.15939 11583 ft 366 kts 101°
2026-04-23 14:02 -7.45851 113.18496 11871 ft 381 kts 101°
2026-04-23 14:02 -7.46426 113.21154 12111 ft 395 kts 101°
2026-04-23 14:03 -7.47019 113.23892 12325 ft 408 kts 101°
2026-04-23 14:03 -7.47634 113.26734 12702 ft 417 kts 101°
2026-04-23 14:03 -7.48251 113.29588 13189 ft 420 kts 101°
2026-04-23 14:03 -7.48879 113.32481 13698 ft 423 kts 101°
2026-04-23 14:04 -7.49509 113.35392 14195 ft 426 kts 101°
2026-04-23 14:04 -7.50137 113.38294 14710 ft 428 kts 101°
2026-04-23 14:04 -7.50770 113.41228 15180 ft 431 kts 101°
2026-04-23 14:04 -7.51407 113.44184 15655 ft 433 kts 101°
2026-04-23 14:05 -7.52047 113.47162 16124 ft 436 kts 101°
2026-04-23 14:05 -7.52683 113.50127 16537 ft 438 kts 101°
2026-04-23 14:05 -7.53329 113.53136 17122 ft 437 kts 101°
2026-04-23 14:05 -7.53963 113.56081 17969 ft 427 kts 101°
2026-04-23 14:06 -7.54584 113.58965 18735 ft 421 kts 101°
2026-04-23 14:06 -7.55201 113.61837 19253 ft 421 kts 101°
2026-04-23 14:06 -7.55821 113.64724 19681 ft 423 kts 101°
2026-04-23 14:06 -7.56447 113.67650 20122 ft 426 kts 100°
2026-04-23 14:07 -7.57068 113.70551 20550 ft 428 kts 100°
2026-04-23 14:07 -7.58326 113.76425 21368 ft 432 kts 101°
2026-04-23 14:07 -7.58966 113.79404 21769 ft 435 kts 101°
2026-04-23 14:08 -7.59601 113.82357 22168 ft 437 kts 101°
2026-04-23 14:08 -7.60244 113.85355 22563 ft 439 kts 100°
2026-04-23 14:08 -7.60884 113.88341 22952 ft 441 kts 100°
2026-04-23 14:08 -7.61530 113.91370 23334 ft 443 kts 100°
2026-04-23 14:09 -7.62178 113.94411 23711 ft 445 kts 100°
2026-04-23 14:09 -7.62833 113.97484 24085 ft 447 kts 101°
2026-04-23 14:09 -7.63485 114.00534 24422 ft 450 kts 101°
2026-04-23 14:09 -7.64146 114.03627 24756 ft 452 kts 101°
2026-04-23 14:10 -7.64804 114.06700 25083 ft 455 kts 101°
2026-04-23 14:10 -7.65477 114.09848 25413 ft 457 kts 101°
2026-04-23 14:10 -7.66143 114.12962 25721 ft 459 kts 101°
2026-04-23 14:10 -7.66816 114.16106 26020 ft 462 kts 101°
2026-04-23 14:11 -7.67494 114.19273 26314 ft 464 kts 101°
2026-04-23 14:11 -7.68178 114.22466 26609 ft 465 kts 101°
2026-04-23 14:11 -7.68852 114.25619 26851 ft 467 kts 101°
2026-04-23 14:11 -7.69538 114.28825 26885 ft 467 kts 101°
2026-04-23 14:12 -7.70049 114.31211 26891 ft 467 kts 101°
2026-04-23 14:12 -7.70734 114.34415 26897 ft 466 kts 101°
2026-04-23 14:12 -7.71417 114.37619 26901 ft 467 kts 101°
2026-04-23 14:12 -7.72092 114.40801 26902 ft 467 kts 101°
2026-04-23 14:13 -7.72774 114.44015 26900 ft 467 kts 101°
2026-04-23 14:13 -7.73447 114.47182 26895 ft 467 kts 101°
2026-04-23 14:13 -7.74126 114.50381 26890 ft 467 kts 101°
2026-04-23 14:13 -7.74811 114.53599 26886 ft 467 kts 101°
2026-04-23 14:14 -7.75489 114.56785 26884 ft 472 kts 101°
2026-04-23 14:14 -7.76187 114.60068 26878 ft 478 kts 101°
2026-04-23 14:14 -7.76882 114.63335 26878 ft 479 kts 101°
2026-04-23 14:14 -7.77576 114.66597 26879 ft 478 kts 101°
2026-04-23 14:15 -7.78275 114.69895 26879 ft 479 kts 101°
2026-04-23 14:15 -7.78960 114.73134 26877 ft 479 kts 101°
2026-04-23 14:15 -7.79652 114.76398 26878 ft 478 kts 101°
2026-04-23 14:15 -7.80349 114.79685 26881 ft 478 kts 101°
2026-04-23 14:16 -7.81049 114.82983 26882 ft 478 kts 100°
2026-04-23 14:16 -7.81740 114.86235 26880 ft 478 kts 101°
2026-04-23 14:16 -7.82433 114.89509 26882 ft 478 kts 101°
2026-04-23 14:16 -7.83128 114.92786 26881 ft 479 kts 100°
2026-04-23 14:17 -7.83818 114.96036 26880 ft 478 kts 100°
2026-04-23 14:17 -7.84518 114.99340 26880 ft 478 kts 100°
2026-04-23 14:17 -7.85214 115.02626 26878 ft 478 kts 100°
2026-04-23 14:17 -7.85902 115.05878 26877 ft 478 kts 100°
2026-04-23 14:18 -7.86598 115.09167 26875 ft 478 kts 100°
2026-04-23 14:18 -7.87289 115.12430 26877 ft 478 kts 100°
2026-04-23 14:18 -7.87977 115.15685 26877 ft 478 kts 100°
2026-04-23 14:18 -7.88669 115.18957 26822 ft 474 kts 100°
2026-04-23 14:19 -7.89352 115.22179 26296 ft 470 kts 100°
2026-04-23 14:19 -7.90027 115.25375 25393 ft 474 kts 100°
2026-04-23 14:19 -7.90721 115.28661 24793 ft 480 kts 100°
2026-04-23 14:19 -7.91413 115.31937 24461 ft 482 kts 100°
2026-04-23 14:20 -7.92110 115.35239 24247 ft 481 kts 100°
2026-04-23 14:20 -7.92810 115.38547 23724 ft 475 kts 100°
2026-04-23 14:20 -7.93494 115.41789 23129 ft 474 kts 100°
2026-04-23 14:20 -7.94170 115.44988 22524 ft 466 kts 100°
2026-04-23 14:21 -7.94858 115.48132 21535 ft 455 kts 103°
2026-04-23 14:21 -7.96128 115.50968 20392 ft 448 kts 124°
2026-04-23 14:21 -7.98226 115.53215 19708 ft 437 kts 137°
2026-04-23 14:21 -8.00539 115.55199 19007 ft 433 kts 138°
2026-04-23 14:22 -8.02774 115.57107 18240 ft 418 kts 137°
2026-04-23 14:22 -8.04940 115.58979 17542 ft 403 kts 137°
2026-04-23 14:22 -8.07027 115.60802 16835 ft 390 kts 137°
2026-04-23 14:22 -8.09047 115.62583 16124 ft 378 kts 137°
2026-04-23 14:23 -8.10975 115.64289 15498 ft 367 kts 137°
2026-04-23 14:23 -8.12889 115.65982 14904 ft 360 kts 136°
2026-04-23 14:23 -8.14738 115.67633 14317 ft 354 kts 136°
2026-04-23 14:23 -8.16576 115.69277 13723 ft 349 kts 136°
2026-04-23 14:24 -8.18403 115.70913 13126 ft 345 kts 136°
2026-04-23 14:24 -8.20193 115.72514 12528 ft 340 kts 136°
2026-04-23 14:24 -8.21933 115.74071 11943 ft 336 kts 136°
2026-04-23 14:24 -8.23672 115.75628 11396 ft 330 kts 136°
2026-04-23 14:25 -8.25385 115.77158 11043 ft 325 kts 136°
2026-04-23 14:25 -8.27062 115.78657 10689 ft 322 kts 136°
2026-04-23 14:25 -8.28746 115.80163 10392 ft 319 kts 136°
2026-04-23 14:25 -8.30404 115.81645 10155 ft 318 kts 136°
2026-04-23 14:26 -8.32061 115.83130 9918 ft 317 kts 136°
2026-04-23 14:26 -8.33708 115.84605 9681 ft 314 kts 136°
2026-04-23 14:26 -8.35334 115.86060 9433 ft 306 kts 136°
2026-04-23 14:26 -8.36908 115.87466 9125 ft 301 kts 136°
2026-04-23 14:27 -8.38466 115.88860 8815 ft 296 kts 136°
2026-04-23 14:27 -8.39986 115.90221 8507 ft 291 kts 136°
2026-04-23 14:27 -8.41496 115.91570 8197 ft 286 kts 136°
2026-04-23 14:27 -8.42985 115.92902 7887 ft 282 kts 136°
2026-04-23 14:28 -8.44438 115.94205 7578 ft 279 kts 136°
2026-04-23 14:28 -8.45884 115.95502 7270 ft 277 kts 136°
2026-04-23 14:28 -8.47309 115.96778 6961 ft 273 kts 135°
2026-04-23 14:28 -8.48738 115.98058 6650 ft 269 kts 135°
2026-04-23 14:29 -8.50121 115.99296 6341 ft 266 kts 136°
2026-04-23 14:29 -8.51500 116.00532 6037 ft 262 kts 135°
2026-04-23 14:29 -8.52861 116.01752 5780 ft 257 kts 135°
2026-04-23 14:29 -8.54181 116.02935 5526 ft 253 kts 136°
2026-04-23 14:30 -8.55494 116.04110 5267 ft 249 kts 135°
2026-04-23 14:30 -8.56795 116.05276 5010 ft 252 kts 135°
2026-04-23 14:30 -8.58109 116.06457 4732 ft 254 kts 136°
2026-04-23 14:30 -8.59438 116.07648 4375 ft 254 kts 135°
2026-04-23 14:31 -8.60678 116.08890 3993 ft 253 kts 129°
2026-04-23 14:31 -8.61792 116.10239 3562 ft 250 kts 127°
2026-04-23 14:31 -8.62875 116.11594 3296 ft 238 kts 127°
2026-04-23 14:31 -8.63891 116.12866 3080 ft 227 kts 127°
2026-04-23 14:32 -8.64872 116.14079 2857 ft 218 kts 127°
2026-04-23 14:32 -8.65811 116.15236 2612 ft 210 kts 127°
2026-04-23 14:32 -8.66718 116.16351 2364 ft 202 kts 127°
2026-04-23 14:32 -8.67582 116.17415 2260 ft 187 kts 127°
2026-04-23 14:33 -8.68389 116.18408 2234 ft 178 kts 127°
2026-04-23 14:33 -8.69138 116.19335 2082 ft 161 kts 127°
2026-04-23 14:33 -8.69842 116.20211 1860 ft 159 kts 127°
2026-04-23 14:33 -8.70535 116.21074 1652 ft 158 kts 127°
2026-04-23 14:34 -8.71218 116.21926 1437 ft 151 kts 127°
2026-04-23 14:34 -8.71870 116.22736 1244 ft 147 kts 127°
2026-04-23 14:34 -8.72501 116.23520 1044 ft 137 kts 127°
2026-04-23 14:34 -8.73093 116.24254 884 ft 135 kts 129°
2026-04-23 14:35 -8.73681 116.24989 700 ft 135 kts 129°
2026-04-23 14:35 -8.74284 116.25735 523 ft 135 kts 128°
2026-04-23 14:35 -8.74875 116.26475 367 ft 135 kts 130°
2026-04-23 14:35 -8.75458 116.27196 319 ft 117 kts 133°
2026-04-23 14:36 -8.75882 116.27727 322 ft 79 kts 127°
2026-04-23 14:36 -8.76132 116.28037 327 ft 43 kts 129°
2026-04-23 14:36 -8.76284 116.28229 332 ft 14 kts 121°
2026-04-23 14:36 -8.76297 116.28265 333 ft 0 kts 133°
2026-04-23 14:37 -8.76303 116.28261 333 ft 2 kts 237°
2026-04-23 14:37 -8.76290 116.28233 332 ft 7 kts 312°
2026-04-23 14:37 -8.76238 116.28169 331 ft 15 kts 309°
2026-04-23 14:37 -8.76155 116.28066 328 ft 21 kts 309°
2026-04-23 14:38 -8.76057 116.27947 325 ft 22 kts 309°
2026-04-23 14:38 -8.76007 116.27837 323 ft 15 kts 255°
2026-04-23 14:38 -8.76085 116.27765 323 ft 15 kts 220°
2026-04-23 14:38 -8.76164 116.27703 323 ft 9 kts 218°
2026-04-23 14:39 -8.76176 116.27660 323 ft 7 kts 309°
2026-04-23 14:39 -8.76136 116.27610 322 ft 10 kts 308°
2026-04-23 14:39 -8.76091 116.27554 321 ft 8 kts 309°
2026-04-23 14:39 -8.76055 116.27507 320 ft 6 kts 294°
2026-04-23 14:40 -8.76074 116.27480 320 ft 5 kts 212°
2026-04-23 14:40 -8.76112 116.27451 319 ft 4 kts 219°
2026-04-23 14:40 -8.76124 116.27441 319 ft 0 kts 219°